Flagstaff, AZ

7:16 PM MST on April 24, 2017 (GMT -0700)
Flagstaff Pulliam

Weather History for KFLG - September, 2013

Change the Weather History Date:

Tuesday, September 3, 2013

  Actual Average Record
Temperature  
Mean Temperature 66 °F 61 °F  
Max Temperature 81 °F 76 °F 91 °F (1948)
Min Temperature 50 °F 46 °F 34 °F (1961)
Degree Days  
Heating Degree Days 0 4  
Month to date heating degree days 2 11  
Since 1 July heating degree days 60 99  
Cooling Degree Days 1 0  
Month to date cooling degree days 1 0  
Year to date cooling degree days 145 114  
Growing Degree Days 15 (Base 50)    
Moisture  
Dew Point 50 °F    
Average Humidity 64    
Maximum Humidity 96    
Minimum Humidity 32    
Precipitation  
Precipitation 0.00 in 0.09 in 0.59 in (1907)
Month to date precipitation T 0.27  
Year to date precipitation 17.68 14.46  
Snow  
Snow 0.00 in 0.00 in 0.00 in (2002)
Month to date snowfall 0.0 0.0  
Since 1 July snowfall 0.0 0.0  
Snow Depth 0.00 in    
Sea Level Pressure  
Sea Level Pressure 30.04 in    
Wind  
Wind Speed 3 mph (South)    
Max Wind Speed 16 mph    
Max Gust Speed 18 mph    
Visibility 10 miles    
Events      
T = Trace of Precipitation, MM = Missing Value Source: NWS Daily Summary

Daily Weather History Graph

Daily Weather History Graph

Search for Another Location

Airport or City:

Trip Planner

Search our weather history database for the weather conditions in past years. The results will help you decide how hot, cold, wet, or windy it might be!

Date:

Astronomy

Sep. 03, 2013 Rise Set
Actual Time 6:00 AM MST 6:50 PM MST
Civil Twilight 5:35 AM MST 7:15 PM MST
Nautical Twilight 5:04 AM MST 7:46 PM MST
Astronomical Twilight 4:33 AM MST 8:17 PM MST
Moon 4:20 AM MST (9/3) 5:38 PM MST (9/3)
Length of Visible Light 13h 40m
Length of Day
12h 49m
Waning Crescent, 3% of the Moon is Illuminated
Sep 3
Waning Crescent
Sep 5
New
Sep 12
First Quarter
Sep 19
Full
Sep 26
Last Quarter

Hourly Weather History & Observations

Time (MST) Temp. Dew Point Humidity Pressure Visibility Wind Dir Wind Speed Gust Speed Precip Events Conditions
12:57 AM 55.9 °F 52.0 °F 87% 30.04 in 10.0 mi NNE 4.6 mph - N/A   Clear
1:57 AM 55.0 °F 51.1 °F 86% 30.04 in 10.0 mi NNE 4.6 mph - N/A   Clear
2:57 AM 53.1 °F 50.0 °F 89% 30.04 in 10.0 mi Calm Calm - N/A   Clear
3:57 AM 52.0 °F 50.0 °F 93% 30.02 in 10.0 mi Calm Calm - N/A   Clear
4:57 AM 51.1 °F 48.9 °F 92% 30.03 in 10.0 mi Calm Calm - N/A   Clear
6:57 AM 55.0 °F 51.1 °F 86% 30.08 in 10.0 mi Calm Calm - N/A   Scattered Clouds
7:57 AM 66.0 °F 53.1 °F 63% 30.06 in 10.0 mi Calm Calm - N/A   Partly Cloudy
8:57 AM 71.1 °F 52.0 °F 51% 30.05 in 10.0 mi Calm Calm - N/A   Scattered Clouds
9:57 AM 73.9 °F 51.1 °F 45% 30.06 in 10.0 mi SW 4.6 mph - N/A   Clear
10:57 AM 75.0 °F 48.9 °F 40% 30.06 in 10.0 mi Variable 4.6 mph - N/A   Mostly Cloudy
12:57 PM 79.0 °F 48.9 °F 35% 30.03 in 10.0 mi SW 9.2 mph - N/A   Clear
1:57 PM 78.1 °F 48.0 °F 35% 30.01 in 10.0 mi South 8.1 mph 17.3 mph N/A   Partly Cloudy
2:57 PM 79.0 °F 46.0 °F 31% 30.01 in 10.0 mi SW 8.1 mph - N/A   Clear
3:57 PM 77.0 °F 51.1 °F 40% 30.00 in 10.0 mi East 5.8 mph - N/A   Clear
4:57 PM 77.0 °F 50.0 °F 39% 30.02 in 10.0 mi Variable 6.9 mph - N/A   Scattered Clouds
5:57 PM 72.0 °F 48.9 °F 44% 30.05 in 10.0 mi ESE 4.6 mph - N/A   Clear
6:57 PM 69.1 °F 45.0 °F 42% 30.05 in 10.0 mi Variable 4.6 mph - N/A   Clear
7:57 PM 68.0 °F 48.0 °F 49% 30.03 in 10.0 mi SSW 3.5 mph - N/A   Overcast
8:57 PM 64.9 °F 50.0 °F 58% 30.02 in 10.0 mi Calm Calm - N/A   Mostly Cloudy
9:57 PM 62.1 °F 52.0 °F 70% 30.04 in 10.0 mi Calm Calm - N/A   Mostly Cloudy
10:57 PM 62.1 °F 51.1 °F 67% 30.03 in 10.0 mi Calm Calm - N/A   Overcast
11:57 PM 61.0 °F 51.1 °F 70% 30.04 in 10.0 mi Calm Calm - N/A   Clear